| time (UTC) | temp F | wind direction | speed MPH | gust MPH | rain 1hr in | rain 24hr in | rain mn in | humidity % | barometer mb |
| 20260506073025 | 53 | 0 | 0.0 | 0.0 | 0.00 | 0.00 | 0.00 | 89 | 1019.2 |
| 20260506070104 | 53 | 0 | 0.0 | 0.0 | 0.00 | 0.00 | 0.01 | 89 | 1019.0 |
| 20260506043046 | 54 | 0 | 0.0 | 0.0 | 0.00 | 0.00 | 0.01 | 88 | 1018.0 |
| 20260506040043 | 54 | 0 | 0.0 | 1.0 | 0.00 | 0.00 | 0.01 | 88 | 1017.4 |
| 20260506033042 | 54 | 0 | 0.0 | 2.0 | 0.00 | 0.00 | 0.01 | 87 | 1017.0 |
| 20260506030059 | 55 | 0 | 0.0 | 0.0 | 0.00 | 0.00 | 0.01 | 87 | 1016.8 |
| 20260506023021 | 56 | 0 | 0.0 | 3.0 | 0.00 | 0.00 | 0.01 | 85 | 1016.5 |
| 20260506020047 | 57 | 0 | 0.0 | 1.0 | 0.00 | 0.00 | 0.01 | 83 | 1016.3 |
| 20260506013031 | 57 | 0 | 0.0 | 2.0 | 0.00 | 0.00 | 0.01 | 84 | 1016.2 |
| 20260506010118 | 57 | 0 | 0.0 | 2.0 | 0.00 | 0.00 | 0.01 | 84 | 1016.2 |
| 20260506003042 | 57 | 0 | 0.0 | 2.0 | 0.00 | 0.00 | 0.01 | 84 | 1016.1 |
| 20260506000041 | 57 | 0 | 0.0 | 1.0 | 0.00 | 0.00 | 0.01 | 85 | 1016.2 |
| 20260505233037 | 57 | 0 | 0.0 | 2.0 | 0.00 | 0.00 | 0.01 | 85 | 1016.3 |
| 20260505230022 | 58 | 0 | 0.0 | 2.0 | 0.00 | 0.00 | 0.01 | 84 | 1016.4 |
| 20260505223105 | 59 | 0 | 0.0 | 4.0 | 0.00 | 0.00 | 0.01 | 83 | 1016.5 |
| 20260505220040 | 59 | 0 | 0.0 | 4.0 | 0.00 | 0.00 | 0.01 | 82 | 1016.4 |
| 20260505213023 | 60 | 0 | 0.0 | 3.0 | 0.00 | 0.00 | 0.01 | 80 | 1016.3 |
| 20260505210051 | 59 | 0 | 0.0 | 3.0 | 0.00 | 0.00 | 0.01 | 82 | 1016.2 |
| 20260505203052 | 59 | 0 | 0.0 | 3.0 | 0.00 | 0.00 | 0.01 | 82 | 1016.3 |
| 20260505200039 | 59 | 0 | 0.0 | 2.0 | 0.00 | 0.00 | 0.01 | 81 | 1016.2 |
| 20260505193041 | 59 | 0 | 0.0 | 2.0 | 0.00 | 0.00 | 0.01 | 82 | 1016.3 |
| 20260505190041 | 59 | 0 | 0.0 | 2.0 | 0.00 | 0.00 | 0.01 | 81 | 1016.0 |
| 20260505183106 | 58 | 0 | 0.0 | 1.0 | 0.00 | 0.00 | 0.01 | 81 | 1016.0 |
| 20260505180038 | 58 | 0 | 0.0 | 1.0 | 0.00 | 0.00 | 0.01 | 83 | 1015.8 |
| 20260505173034 | 58 | 0 | 0.0 | 2.0 | 0.00 | 0.00 | 0.01 | 84 | 1015.7 |
| 20260505170049 | 57 | 0 | 0.0 | 2.0 | 0.00 | 0.00 | 0.01 | 85 | 1015.6 |
| 20260505163025 | 56 | 0 | 0.0 | 3.0 | 0.00 | 0.00 | 0.01 | 88 | 1015.5 |
| 20260505153108 | 55 | 0 | 0.0 | 0.0 | 0.00 | 0.00 | 0.01 | 92 | 1015.6 |
| 20260505150121 | 53 | 0 | 0.0 | 0.0 | 0.00 | 0.00 | 0.01 | 92 | 1015.4 |
| 20260505123120 | 53 | 0 | 0.0 | 0.0 | 0.00 | 0.00 | 0.01 | 92 | 1014.7 |
| 20260505120112 | 53 | 0 | 0.0 | 0.0 | 0.00 | 0.00 | 0.00 | 91 | 1014.7 |
| 20260505113045 | 53 | 0 | 0.0 | 0.0 | 0.00 | 0.00 | 0.00 | 91 | 1014.7 |
| 20260505100034 | 53 | 0 | 0.0 | 0.0 | 0.00 | 0.00 | 0.00 | 91 | 1014.7 |
| 20260505093029 | 53 | 0 | 0.0 | 0.0 | 0.00 | 0.00 | 0.00 | 91 | 1015.3 |
| 20260505090035 | 53 | 0 | 0.0 | 0.0 | 0.00 | 0.00 | 0.00 | 91 | 1015.6 |
| 20260505083039 | 53 | 0 | 0.0 | 0.0 | 0.00 | 0.00 | 0.00 | 91 | 1015.6 |